Location: Pasarilla del Rebollar
(40.6790°N, 5.0062°W)
Time: 12:03:26
(UTC+00:00)

MSX - Pass Details

Date: 22 April 2026
Orbit: 894 x 905 km, 99.0° (Epoch: 16 May)

Event Time Altitude Azimuth Distance (km) Brightness Sun altitude
Rises 02:12:08 0° 12° (NNE) 3,524 7.9 -31.0°
Reaches altitude 10° 02:14:33 10° 11° (N) 2,581 7.0 -30.7°
Enters shadow 02:19:40 68° 338° (NNW) 969 3.9 -30.2°
